College Station, TX

5:10 AM CST on December 15, 2017 (GMT -0600)
Easterwood

Weather History for KCLL - March, 2013

Change the Weather History Date:

Thursday, March 28, 2013

  Actual Average Record
Temperature  
Mean Temperature 63 °F 64 °F  
Max Temperature 74 °F 75 °F 91 °F (1971)
Min Temperature 52 °F 54 °F 30 °F (1955)
Degree Days  
Heating Degree Days 2 3  
Month to date heating degree days 189 162  
Since 1 July heating degree days 1248 1549  
Cooling Degree Days 0 3  
Month to date cooling degree days 38 49  
Year to date cooling degree days 73 77  
Growing Degree Days 13 (Base 50)    
Moisture  
Dew Point 53 °F    
Average Humidity 66    
Maximum Humidity 78    
Minimum Humidity 53    
Precipitation  
Precipitation 0.00 in 0.10 in 2.87 in (2006)
Month to date precipitation 1.71 2.88  
Year to date precipitation 7.87 8.97  
Sea Level Pressure  
Sea Level Pressure 30.20 in    
Wind  
Wind Speed 11 mph (SSE)    
Max Wind Speed 21 mph    
Max Gust Speed 25 mph    
Visibility 10 miles    
Events      
T = Trace of Precipitation, MM = Missing Value Source: NWS Daily Summary

Daily Weather History Graph

Daily Weather History Graph

Search for Another Location

Airport or City:

Trip Planner

Search our weather history database for the weather conditions in past years. The results will help you decide how hot, cold, wet, or windy it might be!

Date:

Astronomy

Mar. 28, 2013 Rise Set
Actual Time 7:19 AM CDT 7:42 PM CDT
Civil Twilight 6:54 AM CDT 8:06 PM CDT
Nautical Twilight 6:26 AM CDT 8:34 PM CDT
Astronomical Twilight 5:58 AM CDT 9:03 PM CDT
Moon 9:24 PM CDT (3/28) 7:55 AM CDT (3/28)
Length of Visible Light 13h 11m
Length of Day
12h 23m
Full, 98% of the Moon is Illuminated
Mar 28
Full
Apr 2
Last Quarter
Apr 10
New
Apr 18
First Quarter
Apr 25
Full

Hourly Weather History & Observations

Time (CDT) Temp. Dew Point Humidity Pressure Visibility Wind Dir Wind Speed Gust Speed Precip Events Conditions
12:53 AM 54.0 °F 46.0 °F 75% 30.22 in 10.0 mi SSE 5.8 mph - N/A   Clear
1:53 AM 53.1 °F 46.0 °F 77% 30.22 in 10.0 mi SE 4.6 mph - N/A   Clear
2:46 AM 53.6 °F 46.4 °F 77% 30.22 in 10.0 mi ESE 4.6 mph - N/A   Overcast
2:53 AM 54.0 °F 46.9 °F 77% 30.21 in 10.0 mi ESE 4.6 mph - N/A   Overcast
3:48 AM 55.4 °F 46.4 °F 72% 30.20 in 10.0 mi SE 5.8 mph - N/A   Overcast
3:53 AM 55.0 °F 46.9 °F 74% 30.19 in 10.0 mi SE 5.8 mph - N/A   Overcast
4:53 AM 55.0 °F 48.0 °F 77% 30.19 in 10.0 mi SE 5.8 mph - N/A   Overcast
5:53 AM 55.9 °F 48.9 °F 77% 30.19 in 10.0 mi SE 5.8 mph - N/A   Overcast
6:53 AM 55.9 °F 50.0 °F 80% 30.20 in 10.0 mi ESE 5.8 mph - N/A   Overcast
7:53 AM 57.0 °F 50.0 °F 77% 30.22 in 10.0 mi ESE 4.6 mph - N/A   Overcast
8:53 AM 59.0 °F 52.0 °F 78% 30.23 in 10.0 mi ESE 8.1 mph - N/A   Overcast
9:53 AM 64.9 °F 54.0 °F 68% 30.23 in 10.0 mi SSE 11.5 mph 18.4 mph N/A   Mostly Cloudy
10:53 AM 68.0 °F 55.0 °F 63% 30.24 in 10.0 mi SSE 13.8 mph - N/A   Mostly Cloudy
11:14 AM 69.8 °F 55.4 °F 60% 30.24 in 10.0 mi SSE 15.0 mph 24.2 mph N/A   Mostly Cloudy
11:22 AM 69.8 °F 55.4 °F 60% 30.24 in 10.0 mi SSE 16.1 mph - N/A   Scattered Clouds
11:53 AM 70.0 °F 55.9 °F 61% 30.23 in 10.0 mi South 17.3 mph 20.7 mph N/A   Overcast
12:53 PM 72.0 °F 55.9 °F 57% 30.21 in 10.0 mi South 15.0 mph - N/A   Mostly Cloudy
1:53 PM 73.0 °F 55.9 °F 55% 30.19 in 10.0 mi SSE 17.3 mph 25.3 mph N/A   Overcast
2:53 PM 73.0 °F 55.9 °F 55% 30.18 in 10.0 mi South 16.1 mph 20.7 mph N/A   Overcast
3:53 PM 73.0 °F 57.0 °F 57% 30.16 in 10.0 mi SSE 16.1 mph - N/A   Overcast
4:53 PM 73.0 °F 57.0 °F 57% 30.14 in 10.0 mi SSE 12.7 mph - 0.00 in   Overcast
5:53 PM 73.0 °F 57.0 °F 57% 30.14 in 10.0 mi SSE 17.3 mph - N/A   Mostly Cloudy
6:53 PM 71.1 °F 55.9 °F 59% 30.15 in 10.0 mi South 15.0 mph - N/A   Mostly Cloudy
7:53 PM 69.1 °F 55.9 °F 63% 30.16 in 10.0 mi South 9.2 mph - N/A   Overcast
8:53 PM 68.0 °F 55.9 °F 65% 30.17 in 10.0 mi SSE 12.7 mph - N/A   Mostly Cloudy
9:53 PM 66.9 °F 55.9 °F 68% 30.17 in 10.0 mi SSE 15.0 mph - N/A   Overcast
10:53 PM 64.0 °F 55.0 °F 73% 30.19 in 10.0 mi SSE 15.0 mph - N/A   Clear
11:53 PM 62.1 °F 55.0 °F 78% 30.18 in 10.0 mi SSE 13.8 mph - N/A   Clear